Location: Brompton
(51.4000°N, 0.5333°E)
Time: 10:06:51
(UTC+00:00)

Cosmos 1898 Rocket - Pass Details

Date: 01 October 2021
Orbit: 752 x 784 km, 74.0° (Epoch: 17 October)

Event Time Altitude Azimuth Distance (km) Brightness Sun altitude
Rises 02:54:30 0° 339° (NNW) 3,268 6.9 -28.1°
Reaches altitude 10° 02:57:58 10° 3° (N) 2,343 6.4 -27.7°
Maximum altitude 03:01:02 15° 38° (NE) 2,002 6.4 -27.3°
Drops below altitude 10° 03:04:05 10° 73° (ENE) 2,345 6.9 -26.9°
Sets 03:07:33 0° 96° (E) 3,272 7.5 -26.4°
